Погода в Куршаве

Россия / Ставропольский край     44°25′52″N   42°34′14″E
темп.,
°C
ветер,
м/с
пор.,
м/с
влажн.,
%
обл.,
%
осадки,
мм/ч
давл.,
гПа
погр.,
м
3 августа, вт
вт300:00+21зюз11661 0.3 101111
03:00+20зюз22740 0.6 101215
06:00+20зюз22760 0.0 101327
09:00+27зсз11500 0.0 1012498
12:00+32с21370 0.0 10121695
15:00+33св22280 0.0 10112569
18:00+32вюв11370 0.0 101131
21:00+25ююз22440 0.0 101111
4 августа, ср
ср400:00+23зюз33601 0.0 101227
03:00+21зюз36660 0.0 1013111
06:00+21зюз37680 0.0 1014170
09:00+28зсз45460 0.0 1014578
12:00+32сз44388 0.0 10131359
15:00+33ссз32328 0.0 10123050
18:00+33с11385 0.0 101256
21:00+25ююв0154100 0.4 101420
5 августа, чт
чт500:00+23сз226224 0.0 101536
03:00+20зсз227875 0.9 101515
06:00+20с1284100 1.6 101662
09:00+25вюв346031 1.9 1015498
12:00+30в564139 0.0 10131650
15:00+32в563618 0.0 10122290
18:00+30в464227 0.0 1011296
21:00+25в22503 0.0 101112
6 августа, пт
пт600:00+23в37530 0.0 1011128
03:00+21в310550 0.0 1010184
06:00+20вюв39610 0.0 1011186
09:00+28вюв69430 0.0 1010619
12:00+32в811360 0.0 10081477
15:00+34вюв81030100 0.0 10061967
18:00+31вюв51040100 0.0 1005380
21:00+27в91743100 0.0 1006629
7 августа, сб
сб700:00+24вюв71451100 0.0 1006482
03:00+22вюв51066100 0.0 1006331
06:00+20вюв41079100 0.4 1007347
09:00+26вюв565327 0.4 1007634
12:00+31вюв434094 0.0 10061010
15:00+33вюв223576 0.0 10051534
18:00+21зюз61277100 4.7 1009257
21:00+20ю3779100 4.8 1010130